Regional Weather Roundup
Issued by NWS Cleveland, OH

Home | Current Version | Previous Version | Graphics & Text | Print | Product List | Glossary On
Versions: 1 2 3 4 5 6 7 8 9 10 11 12 13 14 15 16 17 18 19 20 21 22 23 24 25 26 27 28 29 30 31 32 33 34 35 36 37 38 39 40 41 42 43 44 45 46 47 48 49 50
593
ASUS41 KCLE 281910
RWRCLE
OHIO REGIONAL WEATHER ROUNDUP
NATIONAL WEATHER SERVICE CLEVELAND, OH
300 PM EDT SUN AUG 28 2016

NOTE: "FAIR" INDICATES FEW OR NO CLOUDS BELOW 12,000 FEET WITH NO
SIGNIFICANT WEATHER AND/OR OBSTRUCTIONS TO VISIBILITY.

OHZ001>008-015>018-024>027-034-035-043-044-282000-
   NORTHWEST OHIO

CITY           SKY/WX    TMP DP  RH WIND       PRES   REMARKS
DEFIANCE       MOSUNNY   85  70  60 MISG      30.19S THUNDER
FINDLAY        PTSUNNY   88  69  53 CALM      30.18S HX  92
TOLEDO EXPRESS TSTM      72  68  87 NW9       30.22R FOG
TOLEDO EXEC    CLOUDY    78  67  68 N12G25    30.21R THUNDER
LIMA           PTSUNNY   86  74  67 CALM      30.19F HX  94
$$

OHZ009>014-019>023-028>033-038-089-282000-
   NORTHEAST OHIO

CITY           SKY/WX    TMP DP  RH WIND       PRES   REMARKS
CLE-HOPKINS    MOSUNNY   88  72  58 N7        30.20F HX  94
CLE-LAKEFRONT  SUNNY     84  74  71 N9        30.18F HX  91
CUY CO. ARPT   MOSUNNY   88  75  66 N9        30.20F HX  97
LORAIN-ELYRIA  MOSUNNY   85  72  65 NW3       30.19F HX  91
ASHTABULA      PTSUNNY   86  74  67 VRB3      30.20F HX  94
AKRON-CANTON   MOSUNNY   90  69  50 W5        30.20F HX  94
WOOSTER        MOSUNNY   87  72  60 N3        30.20F HX  93
MANSFIELD      MOSUNNY   89  71  55 NW5       30.21F HX  95
YOUNGSTOWN     MOSUNNY   88  68  51 NW5       30.20F HX  91
$$

OHZ042-051>053-060>062-070>072-077>081-282000-
  SOUTHWEST OHIO

CITY           SKY/WX    TMP DP  RH WIND       PRES   REMARKS
CINC-COVINGTON MOSUNNY   91  72  53 E5        30.17F HX  98
CINC-LUNKEN    MOSUNNY   91  73  55 NE5       30.16F HX 100
HAMILTON       SUNNY     91  72  53 CALM      30.17F HX  98
DAYTON         PTSUNNY   86  70  58 NE5       30.20F HX  90
WRIGHT-PAT AFB MOSUNNY   88  71  57 VRB1      30.18F HX  94
DAYTON GENERAL PTSUNNY   88  72  58 NE3       30.19F HX  94
WILMINGTON     SUNNY     87  72  60 CALM      30.18F HX  93
$$

OHZ036-037-039>041-045>050-054>059-063>069-073>076-082>088-282000-
  CENTRAL AND SOUTHEAST OHIO

CITY           SKY/WX    TMP DP  RH WIND       PRES   REMARKS
COLUMBUS       MOSUNNY   88  70  55 VRB5      30.18F HX  93
OSU AIRPORT    MOSUNNY   89  70  53 VRB3      30.18F HX  94
BOLTON FIELD   SUNNY     88  73  62 S3        30.20F HX  96
RICKENBACK AFB SUNNY     87  71  58 SE3       30.18F HX  93
NEWARK         SUNNY     88  70  55 SW6       30.18F HX  93
MARION         SUNNY     87  71  58 CALM      30.20F HX  93
LANCASTER      SUNNY     90  72  55 CALM      30.19F HX  97
ZANESVILLE     SUNNY     90  69  50 CALM      30.19F HX  94
NEW PHILLY     SUNNY     91  68  46 VRB3      30.19F HX  95
$$




USA.gov is the U.S. government's official web portal to all federal, state and local government web resources and services.